Wind_Speed
5 4 4 3 3 3 3 3 3 4 4 4 4 4 4 5 5 4 4 5 5 5 5 5 5 5 5 5 5 6 5 5 5 6 6 7 8 8 8 8 9 9 9
6 5 4 5 4 4 4 4 4 5 4 5 5 5 5 6 6 6 5 5 5 5 5 5 5 5 6 6 6 6 6 5 6 6 7 7 8 8 9 9 9 9 9
6 6 5 5 5 4 5 4 4 5 5 6 7 7 7 7 7 6 6 5 5 6 6 6 6 6 6 7 7 6 6 6 7 7 7 7 7 8 9 10 10 9 9
7 6 6 6 5 5 6 5 6 6 6 6 7 7 7 8 7 7 7 7 7 6 6 7 7 7 7 7 8 8 8 7 7 7 8 8 8 8 9 10 10 10 10
7 7 7 7 7 6 6 6 6 7 7 8 7 7 7 8 8 8 8 8 7 7 7 8 8 8 9 9 9 8 8 8 9 9 9 9 9 9 9 10 10 11 11
8 8 8 8 8 8 7 7 7 8 8 8 7 8 8 8 8 8 8 8 8 8 8 9 9 10 10 10 9 9 9 9 9 10 10 10 10 10 10 10 11 12 12
9 8 9 9 9 9 8 8 8 9 9 8 8 9 9 9 9 8 8 8 8 9 9 10 10 11 11 11 10 10 10 10 11 11 11 11 11 11 12 12 13 13 14
10 10 10 10 10 10 10 9 10 11 11 10 10 10 10 10 10 10 10 9 10 10 11 11 11 11 11 11 11 11 11 12 11 12 12 12 12 13 14 14 14 15 15
11 11 11 11 11 11 11 11 12 12 12 11 12 12 12 11 11 12 12 12 12 11 11 12 12 12 12 12 12 12 13 13 12 12 12 12 12 13 14 15 16 16 16
13 13 12 12 13 13 12 12 12 13 13 13 13 13 13 13 12 12 13 13 13 13 13 13 13 13 13 12 13 13 13 13 13 13 13 13 14 14 14 15 16 16 16
14 13 13 13 13 14 14 14 14 14 14 14 14 13 13 13 13 13 14 14 14 14 14 14 13 14 14 14 14 14 14 14 14 14 15 14 14 15 15 15 16 16 16
15 14 14 14 14 14 15 15 15 15 15 15 15 14 13 14 14 15 15 15 15 15 15 15 14 14 15 15 15 15 15 15 15 16 16 16 16 16 16 16 16 16 17
16 16 15 15 15 15 15 15 16 16 16 15 15 14 14 14 15 16 16 17 16 17 17 16 15 15 16 16 16 17 17 17 17 17 17 17 17 17 17 17 17 17 16
18 17 16 16 16 16 16 16 16 16 16 15 15 15 16 16 16 17 18 18 18 17 17 18 17 17 17 17 18 18 19 19 19 18 19 19 18 18 18 18 18 18 18
19 19 18 18 18 18 17 17 17 17 16 16 16 16 17 17 17 18 18 19 19 19 19 18 18 19 19 19 19 20 20 20 20 20 20 20 20 19 19 18 18 18 19
20 20 19 19 19 18 19 19 19 18 18 18 17 17 17 18 18 18 18 20 20 20 20 19 19 20 20 20 20 21 21 21 21 21 21 21 20 20 19 19 18 18 18
21 21 21 21 20 20 20 20 20 20 20 19 19 19 19 20 21 20 20 21 21 21 20 20 19 19 20 21 21 21 21 21 21 21 22 22 22 21 21 20 20 19 19
21 21 22 21 21 21 21 21 21 22 21 20 21 20 21 21 21 21 21 21 21 21 21 21 21 21 21 21 21 21 21 22 21 21 22 22 22 22 21 21 20 20 20
23 23 23 22 22 22 22 23 23 22 22 22 22 23 23 23 22 22 22 22 22 21 21 21 22 22 22 22 22 22 21 21 20 20 21 21 21 21 21 21 20 20 20
25 25 25 25 24 24 24 24 24 24 24 24 24 25 25 24 24 23 24 24 23 23 23 23 23 23 22 22 22 22 22 22 21 20 20 20 21 21 21 21 20 20 20
26 27 26 25 25 25 24 25 25 26 26 25 26 26 26 25 26 25 25 25 25 24 24 23 23 23 23 22 22 22 22 22 22 21 20 20 20 20 21 21 20 20 20
27 27 27 26 26 26 26 26 27 27 27 26 26 26 26 26 26 26 26 26 26 25 25 25 24 24 24 23 23 23 22 22 22 21 21 21 21 21 20 21 21 21 21
27 28 27 27 26 27 27 28 28 27 28 28 27 27 27 27 27 27 27 26 27 26 26 26 26 25 25 24 24 23 22 22 22 22 22 22 22 21 21 21 21 21 21
28 28 27 27 27 27 27 27 28 28 28 28 27 27 27 27 27 27 28 27 28 28 28 28 27 26 26 25 24 23 23 24 23 23 23 22 22 21 20 20 21 21 21
28 28 27 27 27 28 28 29 29 29 29 28 28 27 27 27 28 28 28 29 29 29 29 28 27 27 27 26 26 26 25 25 25 24 24 23 22 22 21 20 21 21 21
30 29 29 29 29 29 29 30 31 30 30 29 29 28 28 28 28 29 29 29 29 29 29 29 28 28 27 26 26 27 26 26 25 24 24 23 22 22 21 20 21 21 21
Wind_Direction
350 353 356 2 0 356 343 335 329 327 332 333 335 340 336 332 326 307 298 296 291 290 292 300 312 319 318 321 319 311 292 286 286 281 282 283 282 277 273 270 266 264 267
343 347 350 349 350 348 335 325 319 320 325 323 323 329 331 326 321 306 302 300 294 298 300 310 310 312 315 314 312 308 295 286 288 287 286 284 279 274 270 269 270 268 266
335 336 339 337 339 336 337 332 324 314 311 314 319 321 321 321 319 309 303 300 301 303 303 303 308 311 308 305 304 302 298 290 294 296 295 295 289 276 273 272 271 268 268
335 332 332 328 328 325 328 333 325 319 318 314 316 314 314 317 312 308 298 295 296 298 299 302 302 304 306 306 304 299 294 292 296 297 297 295 291 286 280 274 271 268 271
338 337 334 330 325 323 325 327 326 325 322 317 314 310 308 310 308 304 303 299 295 298 303 305 303 299 298 303 300 298 297 294 291 293 292 290 286 286 283 279 274 272 274
335 336 334 331 328 327 324 321 320 321 319 320 316 311 307 305 303 302 303 300 298 299 302 302 302 300 297 297 295 295 296 298 295 295 291 289 287 286 285 283 280 279 279
333 332 327 323 323 322 322 321 320 318 315 312 310 308 305 303 304 301 303 301 300 299 299 297 298 301 300 298 296 292 293 293 293 294 294 289 285 284 283 281 281 280 280
327 327 324 323 321 320 320 317 315 312 310 306 306 304 298 297 306 307 306 304 300 297 295 297 298 299 303 303 300 296 292 291 291 291 293 292 287 286 283 280 280 280 280
323 319 319 320 320 319 316 314 315 314 308 305 301 301 297 295 299 303 306 306 304 301 296 297 298 297 299 303 299 295 292 289 288 290 291 292 294 291 287 283 281 280 279
318 314 314 315 317 315 311 310 311 310 308 305 302 298 295 296 298 301 302 305 304 302 300 297 295 295 296 299 295 291 291 289 288 288 290 290 291 292 291 287 283 280 279
316 315 314 313 314 314 309 306 304 304 304 304 303 300 298 298 302 306 306 305 302 302 301 297 296 295 295 294 297 292 286 285 286 287 287 289 290 290 289 289 286 282 278
318 321 317 313 311 311 310 306 303 304 305 305 304 304 303 305 305 305 306 304 303 300 296 295 293 292 292 294 295 291 288 284 283 285 287 287 287 288 289 289 289 285 278
318 318 316 314 312 311 310 306 304 307 308 307 307 309 309 308 305 306 305 304 303 300 298 296 294 291 290 291 293 292 289 286 285 284 284 285 287 288 290 289 288 286 282
315 314 313 311 310 309 308 307 307 305 305 303 304 305 306 307 306 305 302 300 300 299 300 298 293 290 289 290 291 290 291 289 285 284 284 286 286 287 289 290 289 285 284
310 308 308 306 305 305 305 304 303 302 301 301 302 301 301 303 304 304 301 298 297 297 298 298 292 288 287 288 289 289 291 290 286 284 284 286 288 288 287 288 287 285 283
310 308 305 303 302 300 300 300 300 300 299 299 300 299 300 300 302 302 300 299 297 297 296 296 295 293 290 288 289 289 289 289 286 284 283 285 286 286 286 284 285 285 283
310 309 307 303 301 300 299 297 296 297 298 298 298 299 299 299 301 300 299 299 297 296 295 295 296 295 292 289 289 290 289 287 286 286 285 285 283 283 283 281 282 283 282
308 308 308 306 302 300 297 294 293 295 294 294 295 296 297 297 298 298 298 297 297 295 294 293 294 293 293 290 288 288 287 286 286 286 286 285 282 282 283 282 282 282 281
306 306 305 303 301 298 295 295 294 295 295 293 292 293 294 296 296 296 296 296 296 295 293 293 292 292 292 290 289 287 287 287 286 286 287 287 284 282 282 281 281 281 281
303 302 302 299 298 297 296 296 294 294 294 293 292 292 292 293 293 294 295 294 293 293 293 293 292 291 291 289 288 288 288 288 287 287 286 286 285 282 280 280 280 280 279
300 300 300 298 297 296 296 295 295 294 293 292 291 291 290 289 289 291 293 292 292 291 292 292 292 291 291 289 288 287 287 287 287 286 285 285 284 282 279 279 280 280 279
298 299 300 298 296 294 295 294 294 294 294 293 292 291 289 288 289 290 290 290 290 290 290 290 290 290 289 286 286 286 286 285 285 283 283 283 284 282 280 280 279 279 279
297 298 298 297 295 294 294 294 293 292 293 294 293 291 289 288 288 288 289 289 288 288 288 288 288 287 286 285 285 285 285 285 284 285 284 283 283 282 280 279 278 278 279
297 297 296 295 294 294 295 294 293 293 292 292 291 290 290 289 288 288 289 289 289 288 287 287 287 285 284 283 282 282 282 283 283 284 284 283 283 283 282 280 278 279 278
296 296 295 295 293 294 293 293 293 292 290 289 288 288 289 289 288 288 289 288 288 288 287 288 286 283 282 282 281 281 281 281 281 280 281 282 283 284 282 281 280 279 278
293 293 293 293 293 294 294 294 292 292 290 289 289 290 290 289 288 288 290 289 289 289 287 284 284 282 281 281 281 282 283 282 279 278 278 280 281 281 282 280 279 277 275
Height
5891 5890 5889 5889 5889 5888 5889 5889 5889 5889 5888 5888 5888 5888 5888 5887 5887 5887 5887 5887 5887 5887 5887 5887 5887 5886 5886 5886 5885 5885 5885 5885 5885 5885 5885 5885 5885 5885 5886 5886 5886 5887 5887
5891 5890 5890 5890 5889 5889 5889 5889 5889 5889 5888 5888 5888 5888 5887 5887 5887 5886 5886 5886 5886 5886 5886 5885 5885 5885 5885 5885 5884 5884 5884 5884 5884 5883 5883 5883 5883 5883 5883 5883 5884 5884 5885
5891 5891 5890 5890 5890 5889 5889 5889 5889 5888 5888 5888 5888 5887 5887 5886 5885 5885 5885 5885 5885 5885 5885 5884 5884 5884 5884 5883 5883 5882 5882 5882 5882 5881 5881 5881 5880 5880 5881 5881 5881 5882 5882
5892 5891 5890 5890 5889 5889 5889 5888 5888 5888 5887 5887 5887 5886 5886 5885 5884 5884 5884 5884 5883 5883 5883 5883 5883 5883 5882 5882 5881 5881 5880 5880 5880 5880 5879 5879 5878 5878 5878 5879 5879 5879 5879
5892 5891 5890 5890 5889 5889 5888 5888 5888 5887 5886 5886 5886 5885 5884 5884 5883 5882 5882 5882 5882 5882 5882 5881 5881 5880 5880 5880 5879 5879 5878 5878 5878 5877 5877 5876 5876 5876 5876 5876 5876 5876 5876
5892 5891 5890 5889 5889 5888 5888 5887 5887 5886 5885 5885 5884 5883 5883 5882 5881 5881 5880 5880 5880 5880 5880 5879 5879 5878 5878 5877 5877 5876 5876 5876 5875 5875 5874 5874 5873 5873 5873 5873 5873 5873 5873
5892 5891 5890 5889 5888 5887 5887 5886 5885 5885 5884 5883 5883 5882 5881 5881 5880 5879 5878 5878 5878 5877 5877 5877 5876 5876 5875 5875 5874 5874 5873 5873 5872 5872 5872 5871 5871 5870 5870 5870 5869 5869 5869
5891 5890 5889 5888 5887 5886 5885 5885 5884 5883 5882 5882 5881 5880 5880 5879 5878 5877 5876 5876 5875 5875 5874 5873 5874 5873 5873 5872 5871 5871 5871 5870 5870 5869 5869 5868 5867 5867 5866 5866 5866 5865 5865
5890 5889 5888 5887 5886 5885 5884 5883 5882 5881 5880 5879 5878 5878 5877 5876 5875 5875 5874 5873 5873 5872 5871 5871 5870 5870 5870 5869 5868 5868 5867 5867 5866 5866 5865 5864 5864 5863 5863 5862 5861 5861 5861
5889 5888 5886 5885 5884 5883 5882 5881 5880 5879 5878 5877 5876 5875 5874 5873 5873 5872 5872 5871 5870 5868 5868 5867 5867 5866 5866 5865 5865 5864 5864 5863 5863 5862 5861 5860 5860 5859 5858 5858 5857 5856 5856
5888 5886 5885 5883 5882 5881 5880 5879 5878 5877 5876 5875 5874 5873 5872 5871 5870 5869 5869 5868 5867 5865 5865 5864 5863 5863 5862 5861 5861 5861 5860 5860 5859 5858 5857 5856 5855 5855 5854 5853 5852 5851 5851
5885 5884 5883 5881 5880 5879 5878 5876 5875 5874 5873 5872 5871 5870 5869 5868 5867 5866 5865 5864 5864 5863 5861 5860 5860 5859 5858 5857 5857 5856 5855 5855 5854 5854 5853 5852 5851 5850 5849 5848 5847 5846 5845
5883 5882 5880 5879 5877 5876 5875 5874 5872 5871 5870 5869 5868 5867 5866 5865 5864 5863 5862 5860 5860 5859 5857 5856 5856 5855 5854 5854 5853 5852 5851 5850 5850 5849 5848 5847 5846 5845 5844 5843 5842 5840 5840
5881 5879 5877 5876 5875 5873 5872 5871 5869 5868 5867 5866 5865 5864 5862 5861 5860 5859 5858 5857 5856 5855 5853 5852 5852 5851 5850 5849 5849 5847 5846 5845 5845 5844 5843 5842 5841 5840 5839 5838 5836 5835 5835
5878 5876 5875 5873 5871 5870 5868 5867 5866 5865 5864 5862 5861 5860 5859 5858 5856 5855 5853 5853 5852 5850 5849 5848 5847 5846 5845 5844 5843 5842 5841 5840 5839 5839 5838 5837 5836 5835 5834 5832 5831 5830 5830
5874 5872 5870 5869 5867 5866 5864 5863 5862 5861 5860 5859 5858 5856 5855 5854 5852 5851 5849 5848 5846 5845 5844 5843 5842 5841 5840 5839 5838 5837 5836 5835 5834 5833 5832 5831 5830 5829 5828 5827 5826 5825 5824
5870 5869 5867 5865 5863 5862 5860 5859 5857 5856 5855 5854 5853 5852 5851 5849 5848 5846 5845 5843 5842 5840 5839 5838 5837 5836 5835 5834 5832 5831 5830 5829 5828 5827 5826 5825 5824 5823 5822 5821 5820 5819 5819
5867 5865 5863 5861 5859 5857 5856 5854 5852 5851 5850 5849 5848 5847 5846 5844 5843 5841 5840 5838 5836 5835 5834 5833 5831 5831 5829 5828 5827 5825 5824 5823 5822 5821 5820 5819 5818 5817 5816 5815 5814 5814 5813
5862 5860 5858 5856 5854 5853 5851 5849 5848 5846 5845 5844 5843 5842 5840 5839 5837 5836 5834 5833 5831 5830 5828 5827 5826 5825 5824 5822 5821 5819 5818 5817 5816 5815 5814 5813 5812 5811 5810 5809 5809 5808 5807
5857 5855 5853 5851 5849 5848 5846 5844 5842 5841 5839 5838 5837 5836 5834 5833 5832 5830 5829 5827 5825 5824 5823 5822 5820 5819 5818 5816 5815 5813 5812 5810 5810 5809 5808 5807 5806 5805 5804 5803 5803 5802 5802
5851 5849 5847 5845 5844 5842 5840 5838 5837 5835 5833 5832 5830 5829 5828 5827 5825 5824 5822 5821 5819 5818 5816 5815 5814 5813 5811 5809 5808 5807 5806 5804 5803 5802 5801 5801 5800 5799 5798 5797 5797 5796 5796
5845 5843 5841 5839 5837 5836 5834 5832 5830 5828 5827 5825 5824 5822 5821 5820 5818 5817 5815 5814 5812 5811 5810 5809 5807 5806 5804 5803 5802 5800 5799 5798 5797 5797 5795 5794 5794 5793 5792 5791 5791 5790 5790
5838 5836 5834 5832 5831 5829 5827 5825 5823 5821 5819 5818 5816 5815 5813 5813 5811 5810 5808 5806 5805 5804 5803 5801 5800 5799 5797 5796 5795 5793 5792 5791 5791 5789 5788 5788 5787 5786 5786 5785 5784 5784 5783
5831 5829 5828 5826 5824 5822 5820 5818 5816 5814 5812 5810 5809 5808 5806 5805 5803 5802 5801 5799 5797 5796 5795 5794 5792 5791 5790 5788 5787 5786 5785 5784 5783 5782 5781 5781 5780 5779 5779 5778 5777 5777 5777
5824 5822 5820 5819 5817 5815 5813 5811 5808 5806 5805 5803 5801 5800 5799 5797 5795 5794 5793 5792 5791 5789 5787 5786 5784 5783 5782 5781 5780 5779 5777 5777 5776 5776 5775 5774 5773 5772 5772 5772 5771 5770 5770
5817 5815 5813 5811 5809 5807 5805 5803 5801 5799 5797 5796 5794 5793 5791 5790 5788 5787 5786 5784 5783 5781 5779 5777 5776 5775 5774 5773 5772 5771 5770 5769 5768 5768 5767 5767 5766 5766 5765 5765 5764 5764 5763